Regional Weather Roundup
Issued by NWS

Home | Current Version | Previous Version | Graphics & Text | Print | Product List | Glossary On
Versions: 1 2 3 4 5 6 7 8 9 10 11 12 13 14 15 16 17 18 19 20 21 22 23 24 25 26 27
000
ASUS45 KPSR 120710
RWRAZ

ARIZONA HOURLY REGIONAL WEATHER ROUNDUP
NATIONAL WEATHER SERVICE PHOENIX AZ
1200 AM MST TUE DEC 12 2017

NOTE: FAIR INDICATES FEW OR NO CLOUDS BELOW 12,000 FEET WITH NO
SIGNIFICANT WEATHER AND/OR OBSTRUCTIONS TO VISIBILITY.

AZZ001>003-036-120800-
NORTHWEST ARIZONA

CITY           SKY/WX    TMP DP  RH WIND       PRES   REMARKS
BULLHEAD CITY  CLEAR     64  -4   6 N14G22    30.28S
KINGMAN        PTCLDY    37  -2  19 E6        30.37R WCI  32
$$

AZZ004>008-015-016-018-120800-
NORTH CENTRAL ARIZONA

CITY           SKY/WX    TMP DP  RH WIND       PRES   REMARKS
GRAND CANYON   PTCLDY    18 -16  21 CALM      30.49S
WILLIAMS       PTCLDY    23  -9  23 S9        30.44S WCI  13
PRESCOTT       PTCLDY    32  -5  20 S10       30.40S WCI  24
FLAGSTAFF      PTCLDY    19 -10  27 CALM      30.46F
PAYSON         CLEAR     46 -11   8 NE5       30.37F
PAGE           PTCLDY    32  14  47 CALM      30.48R
$$

AZZ009>014-017-120800-
NORTHEAST ARIZONA

CITY           SKY/WX    TMP DP  RH WIND       PRES   REMARKS
WINSLOW        CLOUDY    16  -9  32 E3        30.48R
SAINT JOHNS    CLOUDY    21  -1  38 S6        30.47R WCI  13
WINDOW ROCK    PTCLDY    13 -10  35 CALM      30.48S
SHOW LOW       MOCLDY    27  -4  26 E6        30.47S WCI  20
$$

AZZ540-542>544-546-548-120800-
GREATER PHOENIX AREA

CITY           SKY/WX    TMP DP  RH WIND       PRES   REMARKS
PHOENIX        PTCLDY    53  23  31 S3        30.21R
BUCKEYE        CLEAR     52  -2  11 N12       30.22S
LUKE AFB       CLEAR     48  16  28 N6        30.21R
DEER VALLEY    PTCLDY    57   0  10 NE7       30.22S
SCOTTSDALE     CLEAR     50  19  29 CALM      30.23S
MESA-GATEWAY   CLEAR     48   7  18 CALM      30.23S
$$

AZZ539-553-120800-
SOUTHWEST MARICOPA COUNTY AND PINAL COUNTY

CITY           SKY/WX    TMP DP  RH WIND       PRES   REMARKS
CASA GRANDE    NOT AVBL
$$

AZZ503-504-507>509-120800-
SOUTHEAST ARIZONA

CITY           SKY/WX    TMP DP  RH WIND       PRES   REMARKS
TUCSON         CLOUDY    62  20  19 SE10      30.27S
DAVIS-MONTHAN  MOCLDY    59  20  22 SE14      30.25S
NOGALES        PTCLDY    50  20  30 NE7       30.29S
SIERRA VISTA   MOCLDY    48  19  32 S8        30.33F
DOUGLAS        MOCLDY    42  19  39 NE3       30.33S
SAFFORD        MOCLDY    46   9  22 SE7       30.31R
$$

AZZ532-120800-
SOUTHWEST ARIZONA

CITY           SKY/WX    TMP DP  RH WIND       PRES   REMARKS
YUMA           NOT AVBL
$$

CAZ041-043-047-048-061-525>527-560>570-120800-
SOUTHERN CALIFORNIA

CITY           SKY/WX    TMP DP  RH WIND       PRES   REMARKS
DOWNTOWN L.A.  CLEAR     59  16  18 NE3       30.19S
L.A. AIRPORT   PTCLDY    61  21  21 SE6       30.19S
SAN DIEGO      CLEAR     58  23  26 NW3       30.19F
BURBANK        CLEAR     52  16  24 N3        30.20S
ONTARIO        PTCLDY    58  16  19 CALM      30.22R
RIVERSIDE      CLEAR     54  16  22 NE5       30.22S
PALM SPRINGS   CLEAR     60   7  12 NW8       30.25S
EL CENTRO NAS  PTCLDY    48   7  18 W10       30.23R
IMPERIAL       CLEAR     51  12  21 W7        30.20S
BLYTHE         CLEAR     53  -2  10 W7        30.25S
NEEDLES        CLEAR     55  -3   9 NW7       30.28S
$$

NVZ020-UTZ003-120800-
SOUTHERN NEVADA-UTAH

CITY           SKY/WX    TMP DP  RH WIND       PRES   REMARKS
LAS VEGAS      CLEAR     44  -1  15 SW3       30.36R
SALT LAKE CITY SNOW      25  24  96 E3        30.60F VSB 1/4
$$

NMZ009-TXZ055-120800-
NEW MEXICO-WEST TEXAS

CITY           SKY/WX    TMP DP  RH WIND       PRES   REMARKS
ALBUQUERQUE    CLOUDY    40   2  20 NE8       30.47R WCI  34
EL PASO        MOCLDY    39  29  67 NE5       30.37R
$$


........................KEY........................
SKY/WX - SKY CONDITION/WEATHER
TMP    - TEMPERATURE IN FAHRENHEIT
DP     - DEW POINT IN FAHRENHEIT
RH     - RELATIVE HUMIDITY IN PERCENT
WIND   - DIRECTION AND SPEED IN MILES PER HOUR (MPH)
VRB    - VARIABLE WIND DIRECTION
PRES   - MEAN SEA LEVEL PRESSURE IN INCHES OF MERCURY
         F - FALLING PRESSURE   R - RISING PRESSURE
         S - STEADY PRESSURE
VSB    - VISIBILITY IN MILES
HX     - HEAT INDEX IN FAHRENHEIT
WCI    - WIND CHILL INDEX IN FAHRENHEIT
TC     - TEMPERATURE IN CELSIUS WHICH IS ALSO KNOWN AS
         TEMPERATURE IN CENTIGRADE
AFB    - AIR FORCE BASE
         LUKE AFB IS LUKE AIR FORCE BASE
         DAVIS-MONTHAN IS DAVIS-MONTHAN AIR FORCE BASE
NAS    - NAVAL AIR STATION
         EL CENTRO NAS IS EL CENTRO NAVAL AIR STATION
N/A    - NOT AVAILABLE





USA.gov is the U.S. government's official web portal to all federal, state and local government web resources and services.